Location: Elstree
(51.6403°N, 0.2969°W)
Time: 19:41:28
(UTC+00:00)

Terra - Pass Details

Date: 19 June 2021
Orbit: 701 x 703 km, 98.2° (Epoch: 24 July)

Event Time Altitude Azimuth Distance (km) Brightness Sun altitude
Exits shadow 21:36:39 10° 160° (SSE) 2,183 3.7 -8.4°
Reaches altitude 10° 21:36:41 10° 160° (SSE) 2,168 3.7 -8.4°
Maximum altitude 21:41:27 81° 73° (ENE) 720 1.9 -8.8°
Drops below altitude 10° 21:46:14 10° 347° (NNW) 2,184 5.7 -9.2°
Sets 21:48:30 0° 347° (NNW) 3,107 6.8 -9.4°
